EW9774 Weather Reports


Display with metric or nautical units.
time (UTC)temp
F
wind
direction
speed
MPH
gust
MPH
rain 1hr
in
rain 24hr
in
rain mn
in
humidity
%
barometer
mb
20260903194532 61 45 2.0 5.0 0.00 0.38 0.00 74 1012.2
20260903193030 61 52 1.0 4.0 0.00 0.38 0.00 77 1012.5
20260903191531 60 7 2.0 5.0 0.00 0.40 0.00 81 1012.6
20260903190032 59 37 1.0 6.0 0.00 0.40 0.00 83 1012.9
20260903184528 58 90 2.0 5.0 0.00 0.40 0.00 86 1013.0
20260903181533 58 83 2.0 6.0 0.00 0.40 0.00 90 1013.0
20260903180032 57 67 3.0 7.0 0.00 0.40 0.00 94 1013.1
20260903173147 55 32 2.0 7.0 0.00 0.40 0.00 98 1013.2
20260903171531 54 185 0.0 3.0 0.00 0.40 0.00 98 1013.2
20260903170031 53 10 0.0 2.0 0.00 0.40 0.00 98 1013.2
20260903164529 53 180 0.0 1.0 0.00 0.40 0.00 98 1013.4
20260903163039 52 196 0.0 2.0 0.00 0.40 0.00 98 1013.2
20260903161606 51 180 0.0 3.0 0.00 0.40 0.00 98 1013.2
20260903154531 51 158 1.0 4.0 0.00 0.40 0.00 98 1013.2
20260903153030 50 142 1.0 3.0 0.00 0.40 0.00 98 1013.3
20260903151606 50 110 1.0 4.0 0.00 0.40 0.00 98 1013.3
20260903150031 49 194 2.0 5.0 0.00 0.40 0.00 98 1013.2
20260903144530 49 163 0.0 3.0 0.00 0.40 0.00 98 1013.0
20260903143106 48 135 1.0 5.0 0.00 0.40 0.00 98 1013.0
20260903141529 48 186 1.0 5.0 0.00 0.40 0.00 98 1012.8
20260903140032 47 183 2.0 5.0 0.00 0.40 0.00 98 1012.7
20260903134530 47 185 2.0 4.0 0.00 0.40 0.00 98 1012.6
20260903133032 48 153 0.0 4.0 0.00 0.40 0.00 98 1012.4
20260903124529 47 183 2.0 4.0 0.00 0.40 0.00 98 1012.3
20260903123039 47 190 0.0 3.0 0.00 0.40 0.00 97 1012.4
20260903121529 48 180 0.0 3.0 0.00 0.40 0.00 97 1012.4
20260903120029 48 180 0.0 2.0 0.00 0.40 0.00 98 1012.4
20260903114531 49 264 0.0 2.0 0.00 0.40 0.00 98 1012.4
20260903113030 49 184 0.0 4.0 0.00 0.40 0.00 98 1012.4
20260903111529 48 192 2.0 5.0 0.00 0.40 0.00 97 1012.3
20260903110031 49 186 1.0 4.0 0.00 0.40 0.00 97 1012.2
20260903104531 49 181 1.0 4.0 0.00 0.40 0.00 97 1012.2
20260903103029 50 72 0.0 4.0 0.00 0.40 0.00 97 1012.0
20260903101605 51 66 1.0 4.0 0.00 0.40 0.00 97 1011.9
20260903100108 52 191 0.0 3.0 0.00 0.40 0.00 97 1011.8
20260903094532 51 202 0.0 1.0 0.00 0.40 0.00 97 1011.9
20260903093030 51 182 0.0 3.0 0.00 0.40 0.00 97 1011.9
20260903091605 51 180 1.0 4.0 0.00 0.40 0.00 97 1011.9
20260903090029 51 180 0.0 2.0 0.00 0.40 0.00 97 1011.8
20260903084605 52 182 1.0 5.0 0.00 0.40 0.00 97 1011.8
20260903083031 52 140 1.0 4.0 0.00 0.40 0.00 97 1011.8
20260903080030 51 184 4.0 7.0 0.00 0.40 0.00 97 1011.7
20260903074530 51 183 3.0 6.0 0.00 0.40 0.00 97 1011.5
20260903073030 51 198 1.0 4.0 0.00 0.40 0.00 97 1011.4
20260903071529 52 171 1.0 4.0 0.00 0.40 0.00 97 1011.3
20260903070029 52 233 1.0 5.0 0.00 0.40 0.00 97 1011.4
20260903064534 53 185 2.0 6.0 0.00 0.40 0.40 97 1011.4
20260903063029 53 38 2.0 5.0 0.00 0.40 0.40 97 1011.5
20260903060043 53 186 2.0 4.0 0.00 0.40 0.40 96 1011.4
20260903054531 53 180 2.0 7.0 0.00 0.40 0.40 96 1011.4
20260903051532 54 168 1.0 4.0 0.00 0.40 0.40 96 1011.2
20260903044531 54 184 1.0 4.0 0.00 0.40 0.40 96 1010.9
20260903043029 54 180 1.0 3.0 0.01 0.40 0.40 96 1010.8
20260903041531 55 182 2.0 4.0 0.01 0.40 0.40 95 1010.5
20260903034531 57 180 0.0 4.0 0.01 0.40 0.39 95 1010.1
20260903033107 57 180 2.0 4.0 0.01 0.39 0.39 95 1010.1
20260903030032 58 136 0.0 0.0 0.15 0.39 0.39 95 1009.9
20260903024530 58 133 0.0 3.0 0.18 0.39 0.38 95 1009.9
20260903023029 58 135 1.0 4.0 0.18 0.38 0.32 94 1009.8
20260903021531 58 157 0.0 3.0 0.12 0.32 0.24 94 1009.7
20260903014531 58 90 0.0 0.0 0.02 0.21 0.20 94 1009.2
20260903011532 59 90 0.0 0.0 0.04 0.20 0.20 93 1009.2
20260903010030 59 347 0.0 3.0 0.06 0.20 0.19 93 1009.2
20260903004536 59 351 0.0 2.0 0.06 0.19 0.17 93 1009.4
20260903003032 59 360 0.0 2.0 0.04 0.17 0.16 92 1009.4
20260903001530 59 5 0.0 3.0 0.04 0.16 0.14 92 1009.4
20260903000105 59 32 0.0 2.0 0.03 0.14 0.13 92 1009.3
20260902234530 59 36 2.0 4.0 0.02 0.13 0.13 91 1009.3
20260902233031 59 22 1.0 4.0 0.02 0.13 0.12 91 1009.4
20260902231529 60 44 1.0 4.0 0.02 0.12 0.11 92 1009.5
20260902224607 59 357 0.0 4.0 0.03 0.11 0.11 92 1009.4
20260902220030 60 212 0.0 2.0 0.04 0.10 0.08 91 1009.2
20260902211530 60 17 0.0 3.0 0.03 0.06 0.06 91 1009.2
20260902210108 60 86 1.0 5.0 0.04 0.06 0.05 90 1009.3
20260902204532 60 82 3.0 6.0 0.03 0.05 0.04 89 1009.2
20260902203105 60 79 1.0 4.0 0.02 0.04 0.03 88 1009.4
20260902201530 61 44 1.0 4.0 0.03 0.03 0.02 87 1009.4
20260902200031 61 49 2.0 4.0 0.02 0.02 0.02 84 1009.3